Total_Precipitation_Accumulation
0.02 0.11 0.38 0.96 2.06 0.96 0.98 0.98 1.01 0.61 0.27 0.16 0.10 0.15 0.25 0.21 0.42 0.50 0.12 0.17 0.16 0.24 0.13 0.37 0.81 0.71 0.44 0.20 0.16 0.11 0.06 0.05 0.03 0.06 0.14 0.11 0.12 0.12 0.20 0.11 0.12 0.12 0.11 0.09 0.07 0.07 0.09 0.07 0.10
0.03 0.34 1.11 2.74 2.15 1.84 1.83 1.35 1.22 0.44 0.26 0.22 0.11 0.10 0.05 0.02 0.05 0.05 0.13 0.16 0.04 0.01 0.05 0.08 0.77 0.55 0.28 0.15 0.11 0.09 0.05 0.07 0.13 0.17 0.15 0.13 0.24 0.20 0.20 0.12 0.13 0.16 0.15 0.18 0.27 0.20 0.13 0.15 0.22
0.09 1.12 2.65 2.84 1.23 1.18 1.39 1.68 1.48 0.37 0.31 0.20 0.15 0.14 0.07 0.03 0.01 0.06 0.06 0.05 0.02 0.02 0.03 0.09 0.29 0.30 0.17 0.11 0.09 0.07 0.05 0.05 0.10 0.16 0.14 0.14 0.17 0.16 0.13 0.11 0.08 0.09 0.07 0.05 0.03 0.03 0.10 0.19 0.34
0.27 2.98 3.77 2.20 1.14 0.55 0.49 0.81 0.71 1.00 0.61 0.51 0.29 0.10 0.05 0.02 0.01 0.01 0.01 0.02 0.03 0.03 0.02 0.07 0.10 0.08 0.09 0.13 0.08 0.05 0.07 0.06 0.09 0.11 0.09 0.16 0.16 0.21 0.07 0.10 0.13 0.08 0.04 0.02 0.01 0.02 0.05 0.12 0.26
0.43 2.18 1.61 1.47 1.21 0.93 0.60 0.80 0.94 1.53 1.04 0.90 0.31 0.09 0.10 0.04 0.01 0.00 0.00 0.02 0.04 0.03 0.01 0.02 0.20 0.13 0.09 0.08 0.04 0.07 0.08 0.10 0.08 0.07 0.09 0.15 0.09 0.10 0.09 0.09 0.07 0.07 0.03 0.08 0.07 0.05 0.06 0.14 0.40
1.19 0.83 1.02 1.15 0.50 0.51 1.20 1.21 0.72 1.08 1.15 0.47 0.20 0.11 0.15 0.06 0.02 0.00 0.01 0.02 0.04 0.02 0.01 0.02 0.11 0.10 0.15 0.08 0.07 0.06 0.04 0.05 0.10 0.12 0.10 0.09 0.05 0.06 0.03 0.02 0.01 0.02 0.01 0.06 0.03 0.14 0.14 0.16 0.30
0.92 1.58 1.16 0.69 0.53 0.75 0.99 0.88 0.83 1.24 0.67 0.27 0.30 0.07 0.10 0.06 0.01 0.00 0.00 0.01 0.02 0.01 0.01 0.02 0.02 0.08 0.15 0.14 0.09 0.04 0.06 0.07 0.09 0.07 0.09 0.05 0.02 0.01 0.00 0.01 0.00 0.01 0.03 0.06 0.03 0.06 0.08 0.14 0.22
0.24 0.55 1.96 0.83 0.30 1.75 1.11 0.77 0.87 0.78 0.48 0.18 0.09 0.05 0.04 0.03 0.01 0.00 0.01 0.01 0.01 0.01 0.02 0.01 0.01 0.02 0.04 0.07 0.13 0.04 0.06 0.06 0.09 0.03 0.03 0.07 0.08 0.09 0.05 0.08 0.08 0.03 0.01 0.03 0.05 0.07 0.11 0.15 0.26
0.34 1.19 1.73 0.53 0.35 1.62 1.04 0.69 0.44 0.44 0.15 0.06 0.12 0.07 0.00 0.00 0.00 0.01 0.01 0.02 0.02 0.02 0.01 0.00 0.03 0.06 0.15 0.03 0.09 0.08 0.07 0.07 0.02 0.03 0.12 0.43 0.36 0.37 0.41 0.26 0.12 0.07 0.08 0.07 0.09 0.06 0.12 0.13 0.15
0.28 0.82 0.55 0.07 0.07 0.43 1.62 0.82 0.46 0.26 0.11 0.05 0.09 0.05 0.01 0.01 0.01 0.01 0.01 0.01 0.01 0.00 0.01 0.00 0.00 0.01 0.07 0.02 0.07 0.09 0.02 0.02 0.04 0.06 0.24 0.86 0.36 0.24 0.27 0.23 0.20 0.13 0.16 0.16 0.21 0.18 0.36 0.58 0.20
0.10 0.26 0.17 0.03 0.04 0.23 0.86 0.58 0.24 0.24 0.08 0.04 0.06 0.05 0.00 0.00 0.00 0.00 0.00 0.00 0.00 0.00 0.00 0.00 0.00 0.01 0.03 0.03 0.01 0.03 0.01 0.01 0.03 0.07 0.38 0.89 0.38 0.35 0.42 0.32 0.76 0.30 0.22 0.37 0.49 0.18 0.30 0.89 0.36
0.01 0.04 0.09 0.02 0.05 0.19 0.65 1.66 0.29 0.62 1.18 0.23 0.13 0.02 0.00 0.00 0.00 0.00 0.00 0.00 0.00 0.00 0.00 0.00 0.00 0.01 0.16 0.02 0.00 0.09 0.05 0.02 0.00 0.02 0.09 0.22 0.32 0.25 0.38 0.55 0.41 0.34 0.31 0.25 0.36 0.10 0.12 0.23 0.21
0.00 0.01 0.02 0.06 0.03 0.15 0.24 0.59 0.43 0.56 0.47 0.21 0.16 0.02 0.00 0.00 0.00 0.00 0.00 0.00 0.00 0.00 0.00 0.00 0.00 0.05 0.18 0.03 0.05 0.07 0.03 0.05 0.00 0.00 0.04 0.25 0.26 0.23 0.36 0.31 0.23 0.21 0.31 0.85 0.18 0.15 0.12 0.04 0.03
0.00 0.00 0.01 0.02 0.02 0.08 0.10 0.20 0.04 0.11 0.06 0.12 0.10 0.01 0.00 0.00 0.00 0.00 0.00 0.00 0.00 0.00 0.00 0.00 0.00 0.02 0.06 0.04 0.04 0.02 0.01 0.01 0.00 0.00 0.04 0.22 0.22 0.38 0.44 0.42 0.23 0.18 0.21 0.26 0.16 0.13 0.27 0.02 0.00
0.00 0.00 0.00 0.00 0.03 0.08 0.17 0.35 0.15 0.13 0.12 0.10 0.04 0.00 0.00 0.00 0.00 0.00 0.00 0.00 0.00 0.00 0.00 0.00 0.00 0.00 0.01 0.04 0.05 0.01 0.00 0.01 0.00 0.00 0.00 0.02 0.21 0.35 0.33 0.34 0.30 0.33 0.28 0.19 0.15 0.12 0.27 0.02 0.00
0.00 0.00 0.00 0.00 0.01 0.01 0.05 0.21 0.10 0.49 1.30 0.11 0.01 0.00 0.00 0.00 0.00 0.00 0.00 0.00 0.00 0.00 0.00 0.00 0.00 0.00 0.01 0.02 0.03 0.03 0.00 0.00 0.00 0.00 0.01 0.02 0.11 0.21 0.30 0.41 0.32 0.29 0.22 0.21 0.18 0.14 0.08 0.00 0.00
0.00 0.00 0.00 0.00 0.00 0.01 0.07 0.18 0.26 0.31 0.60 0.10 0.02 0.01 0.00 0.00 0.00 0.00 0.00 0.00 0.00 0.00 0.00 0.00 0.00 0.00 0.00 0.01 0.02 0.01 0.01 0.03 0.02 0.01 0.01 0.05 0.08 0.17 0.66 0.61 0.48 0.24 0.31 0.21 0.13 0.12 0.05 0.00 0.00
0.00 0.00 0.00 0.00 0.00 0.01 0.02 0.14 0.54 0.31 0.65 0.34 0.12 0.06 0.00 0.00 0.00 0.00 0.00 0.00 0.00 0.00 0.00 0.00 0.00 0.00 0.00 0.08 0.11 0.07 0.04 0.01 0.01 0.01 0.04 0.08 0.06 0.20 0.42 0.49 0.61 0.31 0.24 0.34 0.28 0.09 0.00 0.00 0.00
0.00 0.00 0.00 0.00 0.00 0.01 0.01 0.07 0.53 0.31 0.39 0.85 0.30 0.14 0.04 0.00 0.00 0.00 0.00 0.00 0.00 0.00 0.00 0.00 0.00 0.01 0.02 0.07 0.03 0.03 0.01 0.00 0.01 0.02 0.01 0.02 0.05 0.14 0.30 0.41 0.55 0.29 0.22 0.23 0.15 0.04 0.00 0.00 0.00
0.00 0.00 0.00 0.00 0.00 0.00 0.01 0.04 0.12 0.11 0.13 0.52 0.63 0.13 0.06 0.00 0.00 0.00 0.00 0.00 0.00 0.00 0.00 0.00 0.00 0.01 0.00 0.01 0.01 0.01 0.01 0.00 0.00 0.04 0.09 0.01 0.03 0.07 0.18 0.40 0.32 0.27 0.26 0.27 0.16 0.10 0.04 0.00 0.00
0.00 0.00 0.00 0.00 0.00 0.00 0.02 0.12 0.16 0.20 0.17 0.32 0.81 0.30 0.18 0.01 0.00 0.00 0.00 0.00 0.00 0.00 0.00 0.00 0.00 0.00 0.01 0.02 0.02 0.07 0.08 0.03 0.01 0.03 0.05 0.02 0.02 0.02 0.16 0.30 0.24 0.34 0.30 0.34 0.20 0.05 0.03 0.01 0.00
0.00 0.00 0.00 0.00 0.00 0.00 0.00 0.02 0.06 0.08 0.34 1.11 1.00 0.37 0.15 0.03 0.01 0.00 0.00 0.00 0.00 0.00 0.00 0.00 0.00 0.00 0.01 0.03 0.01 0.05 0.02 0.01 0.00 0.00 0.00 0.02 0.01 0.01 0.03 0.16 0.23 0.23 0.22 0.30 0.23 0.03 0.01 0.00 0.00
0.00 0.00 0.00 0.00 0.00 0.00 0.00 0.00 0.00 0.00 0.07 0.64 0.95 0.26 0.14 0.16 0.01 0.01 0.00 0.00 0.00 0.00 0.00 0.00 0.00 0.00 0.01 0.02 0.01 0.04 0.01 0.00 0.00 0.00 0.01 0.02 0.04 0.00 0.01 0.08 0.23 0.14 0.16 0.20 0.21 0.11 0.00 0.01 0.00
0.00 0.00 0.00 0.00 0.00 0.00 0.00 0.00 0.00 0.00 0.00 0.07 0.27 0.23 0.11 0.01 0.00 0.01 0.00 0.00 0.00 0.00 0.00 0.00 0.00 0.00 0.00 0.01 0.01 0.04 0.03 0.00 0.00 0.00 0.00 0.00 0.00 0.01 0.01 0.03 0.06 0.10 0.08 0.13 0.16 0.14 0.04 0.01 0.01
0.00 0.00 0.00 0.00 0.00 0.00 0.00 0.00 0.00 0.00 0.00 0.01 0.07 0.22 0.10 0.05 0.01 0.01 0.00 0.00 0.00 0.00 0.00 0.00 0.00 0.00 0.00 0.00 0.00 0.01 0.01 0.01 0.01 0.01 0.00 0.00 0.00 0.00 0.00 0.01 0.08 0.02 0.04 0.07 0.08 0.13 0.09 0.02 0.00
0.00 0.00 0.00 0.00 0.00 0.00 0.00 0.00 0.00 0.00 0.00 0.01 0.04 0.05 0.11 0.07 0.08 0.04 0.00 0.00 0.00 0.00 0.00 0.00 0.00 0.00 0.00 0.00 0.00 0.00 0.00 0.00 0.00 0.00 0.00 0.00 0.00 0.00 0.00 0.00 0.00 0.01 0.02 0.02 0.05 0.04 0.02 0.02 0.00
0.00 0.00 0.00 0.00 0.00 0.00 0.00 0.00 0.00 0.00 0.00 0.00 0.05 0.08 0.13 0.18 0.15 0.09 0.01 0.01 0.00 0.00 0.00 0.00 0.00 0.00 0.00 0.00 0.00 0.00 0.00 0.00 0.00 0.00 0.00 0.00 0.00 0.00 0.00 0.00 0.00 0.00 0.01 0.01 0.03 0.02 0.03 0.04 0.01
0.00 0.00 0.00 0.00 0.00 0.00 0.00 0.00 0.00 0.00 0.00 0.00 0.00 0.04 0.03 0.30 0.45 0.21 0.08 0.03 0.06 0.02 0.00 0.00 0.00 0.00 0.00 0.00 0.00 0.00 0.00 0.00 0.00 0.00 0.00 0.00 0.00 0.00 0.00 0.00 0.00 0.00 0.00 0.00 0.01 0.00 0.01 0.01 0.01
0.00 0.00 0.00 0.00 0.00 0.00 0.00 0.00 0.00 0.00 0.00 0.00 0.00 0.00 0.00 0.03 0.49 0.83 0.32 0.11 0.04 0.05 0.00 0.00 0.00 0.00 0.00 0.00 0.00 0.00 0.00 0.00 0.00 0.00 0.00 0.00 0.00 0.00 0.00 0.00 0.00 0.00 0.00 0.00 0.00 0.00 0.01 0.01 0.00
0.00 0.00 0.00 0.00 0.00 0.00 0.00 0.00 0.00 0.00 0.00 0.00 0.02 0.02 0.01 0.06 0.13 0.61 0.63 0.15 0.01 0.00 0.00 0.00 0.00 0.00 0.00 0.00 0.00 0.00 0.00 0.00 0.00 0.00 0.00 0.00 0.00 0.00 0.00 0.00 0.00 0.00 0.00 0.00 0.00 0.00 0.00 0.00 0.00